[[{"header":{"parameterUnit":"m.s-1","parameterCategory":1,"la1":30.2991,"la2":30.254,"lo1":-89.0895,"lo2":-89.0444,"dy":0.0017,"dx":0.0017,"nx":28,"ny":28,"refTime":"2023-10-12T21:00:00:Z","depth":0,"parameterNumber":2,"parameterNumberName":"U-component_of_WINDS"},"data":[0,0,0,0,0,0,0,0,0,0,0,0,0,0,0,0,0,0,0,0,0,0,0,0,0,0,0,0,0,0,0,0,0,0,0,0,0,0,0,0,0,0,0,0,0,0,0,0,0,0,0,0,0,0,0,0,0,0,0.9378,0.9379,0,0.9436,0.9437,0.9438,0.9424,0.9422,0.9421,0.942,0.9481,0.9484,0.9487,0,0,0,0,0,0,0,0,0,0,0,0,0,0.9256,0.9258,0.9378,0.9379,0.938,0.9436,0.9437,0.9438,0.9424,0.9422,0.9421,0.942,0.948,0.9484,0.9487,0,0,0,0,0,0,0,0,0,0,0,0,0,0.9311,0.9259,0.9378,0.9379,0.938,0.9436,0.9437,0.9438,0.9424,0.9422,0.9421,0.9419,0.9479,0.9483,0.9487,0.9546,0,0,0.95,0.9501,0,0,0,0,0,0,0,0,0.9308,0.9315,0.9379,0.9379,0.938,0.9421,0.9416,0.9474,0.9424,0.9407,0.942,0.9418,0.9463,0.9468,0.9483,0.9549,0.9551,0.95,0.9502,0.9504,0.9505,0,0,0,0,0,0,0,0.9304,0.9313,0.9401,0.9379,0.9381,0.9377,0.9383,0.9427,0.9444,0.9409,0.9408,0.9415,0.9463,0.9479,0.9484,0.9552,0.95,0.9503,0.9506,0.9507,0.9668,0.9669,0,0,0,0,0,0,0.9299,0.931,0.9399,0.9403,0.9339,0.9381,0.9388,0.941,0.9443,0.9447,0.9416,0.9414,0.9473,0.9479,0.9486,0.9555,0.9504,0.9508,0.951,0.9666,0.9668,0.967,0,0,0,0,0,0,0.9297,0.9307,0.9397,0.9356,0.9367,0.9385,0.941,0.9412,0.9427,0.9449,0.9452,0.9429,0.9472,0.948,0.9531,0.9557,0.951,0.9513,0.9664,0.9666,0.9669,0.9696,0,0,0,0,0,0,0.9293,0.9307,0.9329,0.9357,0.9369,0.944,0.9411,0.9414,0.9434,0.9432,0.9462,0.9465,0.9471,0.9525,0.9535,0.9562,0.9516,0.9661,0.9665,0.9668,0.9692,0.9699,0.9705,0,0,0,0,0,0.9289,0.9335,0.933,0.9341,0.9398,0.9442,0.9449,0.9454,0.9436,0.9459,0.9473,0.9464,0.9553,0.953,0.9541,0.957,0.966,0.9664,0.9668,0.969,0.9698,0.9704,0,0,0,0,0,0,0.9311,0.9339,0.9334,0.939,0.9414,0.944,0.9468,0.9463,0.9493,0.9489,0.9495,0.9502,0.9552,0.9567,0.954,0.9628,0.9604,0.961,0.9617,0.9624,0.963,0.9625,0.952,0,0,0,0,0,0.9322,0.9355,0.9378,0.9425,0.9437,0.9451,0.947,0.9472,0.9497,0.9507,0.9524,0.9549,0.9582,0.9604,0.9636,0.9695,0.97,0.972,0.9726,0.9731,0.9736,0.9767,0.9775,0.9684,0.9684,0.9684,0,0,0.9345,0.9365,0.9386,0.943,0.9449,0.9483,0.9459,0.9497,0.9522,0.9513,0.9561,0.9574,0.9602,0.9656,0.9681,0.967,0.9763,0.9736,0.974,0.9743,0.9772,0.978,0.9788,0.9686,0.9686,0.9686,0,0,0.9406,0.9424,0.9465,0.9484,0.9512,0.952,0.953,0.9557,0.9565,0.9613,0.9606,0.9637,0.9694,0.9714,0.9732,0.9798,0.9791,0.9809,0.984,0.987,0.9877,0.9883,0.9906,0.9914,0.9814,0.9814,0.9814,0,0.9431,0.9482,0.9487,0.9524,0.9543,0.9536,0.9577,0.9595,0.9633,0.9646,0.9633,0.9703,0.9722,0.978,0.9796,0.9811,0.9822,0.9805,0.9875,0.9882,0.9888,0.9909,0.9918,0.9816,0.9816,0.9816,0.9815,0,0.9512,0.9548,0.9577,0.9612,0.9635,0.9674,0.9684,0.9707,0.9706,0.9716,0.9765,0.9786,0.9822,0.9836,0.9837,0.9894,0.9885,0.9874,0.985,0.9898,0.9918,0.9927,0.9818,0.9818,0.9817,0.9817,0,0,0.9587,0.9623,0.9634,0.9649,0.9679,0.9707,0.9746,0.9779,0.9798,0.9824,0.9856,0.9905,0.9893,0.9913,0.9916,0.9942,0.9992,0.9927,0.9928,0.9937,1.0054,1.0062,1.0072,0.9988,0.9989,0.9991,1.0052,0,0.9649,0.9716,0.9721,0.9782,0.9814,0.9807,0.984,0.9862,0.9872,0.9901,0.9913,0.9946,0.993,0.9942,0.9967,0.998,1.0015,0.9976,1.0017,1.0019,1.0009,1.0082,1.0091,1.0147,1.006,1.0061,1.0062,0,0.973,0.9757,0.9821,0.9845,0.9859,0.9889,0.9919,0.9947,0.9972,0.9978,0.9999,0.9998,1.0037,1.0012,1.0066,1.0039,1.0057,1.0066,1.0068,1.0071,1.0042,1.0086,1.0166,1.0174,1.0075,1.0074,1.0073,0,0.9776,0.9829,0.9874,0.9887,0.9917,0.9938,0.9952,0.9975,0.9994,1.0021,1.0034,1.0066,1.0083,1.0108,1.0115,1.0096,1.0168,1.0144,1.0173,1.0173,1.0188,1.0187,1.027,1.0201,1.0201,1.0201,1.0201,0,0.9844,0.9883,0.9895,0.9922,0.9965,0.997,1.0013,1.0025,1.0046,1.0075,1.0072,1.0099,1.0108,1.0137,1.0143,1.0186,1.0194,1.0199,1.02,1.0199,1.0198,1.0209,1.0205,1.0203,1.0203,1.0202,1.0202,0,0.9902,0.9912,0.996,0.9984,0.9991,1.0022,1.0042,1.0069,1.0078,1.0115,1.0124,1.0139,1.0173,1.0183,1.0225,1.0228,1.0278,1.0277,1.027,1.0269,1.0297,1.0294,1.039,1.0402,1.0326,1.0327,1.0328,0,0.9944,0.9974,1.0001,1.002,1.0034,1.0065,1.0085,1.0091,1.0112,1.0141,1.0164,1.0197,1.0224,1.0279,1.0294,1.0325,1.0323,1.0354,1.0328,1.0325,1.0322,1.0319,1.0322,1.0359,1.036,1.036,1.0361,0,1.0017,1.002,1.0048,1.0078,1.0102,1.0126,1.0149,1.0165,1.0174,1.0198,1.0232,1.0253,1.0294,1.0327,1.0359,1.0373,1.0368,1.0369,1.0377,1.0376,1.037,1.0372,1.0282,1.0367,1.0366,1.0366,1.0366,1.0365,1.0067,1.0093,1.0115,1.0147,1.0165,1.0186,1.0211,1.0224,1.0252,1.0286,1.0288,1.0325,1.0348,1.039,1.0405,1.0434,1.0425,1.0437,1.044,1.0443,1.0444,1.0366,1.044,1.044,1.044,1.044,1.044,0,1.0138,1.0152,1.0181,1.0213,1.0238,1.0231,1.0256,1.0277,1.031,1.0331,1.0358,1.0397,1.0428,1.0445,1.0477,1.0497,1.0495,1.0505,1.0503,1.0506,1.0452,1.0441,1.0505,1.0505,1.0505,1.0505,1.0505,1.0505,1.0178,1.022,1.0226,1.0277,1.0291,1.0326,1.0341,1.036,1.0378,1.0421,1.0447,1.0458,1.0478,1.0511,1.0539,1.0543,1.0555,1.0565,1.0568,1.0517,1.051,1.0503,1.0493,1.0568,1.0568,1.0619,1.062,1.062]},{"header":{"parameterUnit":"m.s-1","parameterCategory":1,"la1":30.2991,"la2":30.254,"lo1":-89.0895,"lo2":-89.0444,"dy":0.0017,"dx":0.0017,"nx":28,"ny":28,"refTime":"2023-10-12T21:00:00:Z","depth":0,"parameterNumber":3,"parameterNumberName":"V-component_of_WINDS"},"data":[0,0,0,0,0,0,0,0,0,0,0,0,0,0,0,0,0,0,0,0,0,0,0,0,0,0,0,0,0,0,0,0,0,0,0,0,0,0,0,0,0,0,0,0,0,0,0,0,0,0,0,0,0,0,0,0,0,0,2.6699,2.6699,0,2.6631,2.6631,2.663,2.661,2.661,2.6611,2.6611,2.6534,2.6532,2.653,0,0,0,0,0,0,0,0,0,0,0,0,0,2.6806,2.6804,2.67,2.6699,2.6698,2.6632,2.6631,2.663,2.661,2.661,2.6611,2.6611,2.6535,2.6532,2.6529,0,0,0,0,0,0,0,0,0,0,0,0,0,2.6751,2.6803,2.67,2.668,2.6678,2.6632,2.6631,2.6629,2.661,2.661,2.6611,2.6611,2.6536,2.6532,2.6529,2.6495,0,0,2.6518,2.6516,0,0,0,0,0,0,0,0,2.6754,2.6747,2.6684,2.6681,2.6679,2.663,2.664,2.6584,2.661,2.6635,2.6611,2.6612,2.6565,2.6559,2.6545,2.6492,2.6488,2.6518,2.6515,2.6514,2.6513,0,0,0,0,0,0,0,2.6758,2.675,2.6672,2.6683,2.668,2.6673,2.6665,2.6629,2.6598,2.6633,2.6632,2.6624,2.6564,2.6548,2.6543,2.6487,2.6518,2.6515,2.6512,2.6511,2.6402,2.6401,0,0,0,0,0,0,2.6766,2.6753,2.6675,2.667,2.6719,2.667,2.6662,2.6645,2.6598,2.6592,2.6624,2.6623,2.6554,2.6547,2.654,2.6497,2.6514,2.6511,2.6508,2.6402,2.6401,2.6401,0,0,0,0,0,0,2.6768,2.6759,2.6677,2.6711,2.67,2.6668,2.6648,2.6643,2.6628,2.6591,2.6585,2.6614,2.6554,2.6545,2.6507,2.6494,2.6509,2.6506,2.6403,2.6402,2.6401,2.641,0,0,0,0,0,0,2.6771,2.676,2.6749,2.6711,2.6699,2.6647,2.6648,2.6641,2.6623,2.6622,2.658,2.6574,2.6554,2.6512,2.6503,2.6489,2.6503,2.6404,2.6403,2.6401,2.6411,2.641,2.6409,0,0,0,0,0,2.6775,2.6753,2.6748,2.6739,2.6684,2.6646,2.6639,2.6619,2.6622,2.6609,2.6585,2.6575,2.6497,2.6509,2.6498,2.6483,2.6405,2.6403,2.6401,2.6411,2.641,2.6409,0,0,0,0,0,0,2.6787,2.6747,2.6742,2.6707,2.6681,2.6643,2.6626,2.6618,2.6588,2.6588,2.6562,2.6553,2.6516,2.6495,2.6509,2.6447,2.645,2.6447,2.6462,2.646,2.6459,2.6463,2.65,0,0,0,0,0,2.6786,2.6761,2.6727,2.6699,2.6686,2.6659,2.6642,2.6629,2.6599,2.6587,2.656,2.653,2.6499,2.6478,2.6447,2.6408,2.6398,2.6393,2.6391,2.6391,2.6387,2.6363,2.636,2.6395,2.6395,2.6395,0,0,2.6782,2.6758,2.6743,2.6701,2.6679,2.6651,2.6649,2.662,2.6599,2.6582,2.6544,2.6524,2.6488,2.6449,2.6431,2.6431,2.6375,2.6388,2.6388,2.6385,2.6361,2.6358,2.6355,2.6394,2.6394,2.6394,0,0,2.6762,2.6742,2.6716,2.6694,2.6662,2.6644,2.6638,2.6602,2.6588,2.6551,2.6537,2.651,2.6457,2.6432,2.6412,2.6383,2.6372,2.6373,2.6366,2.6343,2.6341,2.6338,2.6326,2.6322,2.637,2.637,2.637,0,2.6761,2.6721,2.6703,2.6675,2.6656,2.6642,2.6614,2.6594,2.6552,2.6538,2.654,2.6473,2.6448,2.6402,2.6395,2.638,2.637,2.6377,2.6343,2.634,2.6337,2.6325,2.6321,2.637,2.637,2.637,2.637,0,2.6721,2.6694,2.6677,2.6639,2.6618,2.659,2.6566,2.6547,2.6535,2.6516,2.6477,2.6447,2.641,2.6398,2.6386,2.635,2.6352,2.6349,2.6351,2.6335,2.6323,2.6318,2.6371,2.6371,2.6371,2.6371,0,0,2.6705,2.6658,2.6652,2.6635,2.6598,2.6575,2.6546,2.6512,2.6495,2.6467,2.644,2.6396,2.6393,2.6371,2.6355,2.6336,2.6313,2.6335,2.6334,2.633,2.6269,2.6271,2.6266,2.6306,2.6305,2.6305,2.6272,0,2.6678,2.6629,2.6612,2.6569,2.6543,2.6529,2.6503,2.6477,2.6458,2.6431,2.641,2.6378,2.6378,2.6364,2.6344,2.632,2.63,2.6322,2.6279,2.6277,2.6287,2.626,2.6261,2.6232,2.6267,2.6267,2.6266,0,2.6641,2.6614,2.657,2.6537,2.6525,2.6503,2.6469,2.6444,2.6413,2.6401,2.6377,2.6363,2.633,2.6336,2.6289,2.6304,2.6285,2.6271,2.6269,2.6262,2.627,2.6251,2.6222,2.6217,2.6259,2.626,2.626,0,2.6632,2.6585,2.6552,2.6538,2.6498,2.6482,2.6465,2.6435,2.6415,2.6385,2.6371,2.6337,2.6318,2.6291,2.6267,2.6274,2.6222,2.6226,2.6208,2.6209,2.6196,2.6197,2.6162,2.6187,2.6187,2.6187,2.6187,0,2.6603,2.6576,2.6547,2.6527,2.6496,2.6476,2.6444,2.6426,2.6399,2.6373,2.6358,2.6334,2.6306,2.6276,2.6258,2.622,2.6212,2.6199,2.6194,2.62,2.6201,2.6186,2.6186,2.6186,2.6186,2.6187,2.6187,0,2.6587,2.6567,2.653,2.6496,2.6487,2.6465,2.6435,2.6414,2.6395,2.6362,2.6353,2.6323,2.6288,2.6263,2.6217,2.6205,2.6164,2.616,2.6175,2.6172,2.6156,2.6157,2.6108,2.61,2.6132,2.6132,2.6132,0,2.6569,2.6549,2.6513,2.6496,2.6479,2.6451,2.6432,2.6411,2.639,2.6353,2.6336,2.6301,2.6271,2.6216,2.6188,2.6153,2.6146,2.6132,2.6141,2.6146,2.6144,2.6145,2.6142,2.613,2.613,2.6129,2.6129,0,2.654,2.6531,2.6505,2.6474,2.6452,2.6426,2.64,2.6386,2.636,2.6338,2.6303,2.6281,2.6235,2.6199,2.6162,2.6141,2.6129,2.6127,2.6121,2.6125,2.6134,2.6127,2.617,2.6128,2.6128,2.6128,2.6128,2.6128,2.6521,2.6502,2.6474,2.6444,2.6423,2.6399,2.6378,2.6357,2.6329,2.6292,2.6281,2.6244,2.6212,2.6161,2.614,2.6109,2.6109,2.6101,2.6098,2.6096,2.6095,2.6141,2.6102,2.6102,2.6102,2.6102,2.6102,0,2.6489,2.6471,2.6444,2.641,2.6386,2.6381,2.6352,2.6332,2.6301,2.6273,2.6245,2.6205,2.617,2.6141,2.6104,2.6085,2.6079,2.6076,2.6076,2.6071,2.6098,2.6106,2.6082,2.6082,2.6082,2.6082,2.6082,2.6082,2.647,2.6436,2.6424,2.638,2.6361,2.6327,2.6311,2.6288,2.6266,2.6222,2.6195,2.6177,2.6147,2.6109,2.6076,2.6068,2.6054,2.6052,2.6042,2.6067,2.607,2.6072,2.6079,2.605,2.605,2.6018,2.6018,2.6017]}]]